EW6655 Weather Reports


time (UTC)temp
C
wind
direction
speed
KPH
gust
KPH
rain 1hr
cm
rain 24hr
cm
rain mn
cm
humidity
%
barometer
mb
20260503023021 12 269 1.6 8.0 0.00 0.00 0.00 70 1011.6
20260503021523 12 261 3.2 11.3 0.00 0.00 0.00 70 1011.7
20260503020032 12 248 0.0 8.0 0.00 0.00 0.00 70 1011.8
20260503014517 12 236 1.6 4.8 0.00 0.00 0.00 69 1012.0
20260503013015 13 236 1.6 6.4 0.00 0.00 0.00 69 1012.2
20260503011514 13 261 0.0 4.8 0.00 0.00 0.00 69 1012.4
20260503010012 13 261 1.6 6.4 0.00 0.00 0.00 69 1012.5
20260503004509 13 255 1.6 6.4 0.00 0.00 0.00 69 1012.6
20260503003012 13 256 1.6 4.8 0.00 0.00 0.00 69 1012.7
20260503001510 13 256 1.6 6.4 0.00 0.00 0.00 69 1012.8
20260503000013 13 256 0.0 4.8 0.00 0.00 0.00 70 1012.9
20260502234618 13 256 1.6 6.4 0.00 0.00 0.00 71 1013.0
20260502233157 13 256 1.6 6.4 0.00 0.00 0.00 73 1013.1
20260502231554 13 256 1.6 6.4 0.00 0.00 0.00 75 1013.2
20260502230052 13 256 0.0 4.8 0.00 0.00 0.00 77 1013.2
20260502224545 12 256 0.0 4.8 0.00 0.00 0.00 82 1013.4
20260502223052 12 256 0.0 3.2 0.00 0.00 0.00 88 1013.5
20260502221544 12 256 0.0 0.0 0.00 0.00 0.00 89 1013.5
20260502220041 12 256 0.0 1.6 0.00 0.00 0.00 89 1013.6
20260502214550 12 256 0.0 0.0 0.00 0.00 0.00 89 1013.6
20260502213044 12 256 0.0 0.0 0.00 0.00 0.00 89 1013.7
20260502211537 13 256 0.0 0.0 0.00 0.00 0.00 87 1013.7
20260502210036 13 256 0.0 1.6 0.00 0.00 0.00 87 1013.7
20260502204539 13 256 0.0 0.0 0.00 0.00 0.00 85 1013.6
20260502203056 14 256 0.0 1.6 0.00 0.00 0.00 85 1013.9
20260502201535 14 256 0.0 1.6 0.00 0.00 0.00 85 1014.0
20260502200036 15 256 0.0 0.0 0.00 0.00 0.00 84 1014.1
20260502194531 15 256 0.0 0.0 0.00 0.00 0.00 84 1014.1
20260502193031 15 256 0.0 0.0 0.00 0.00 0.00 84 1014.0
20260502191537 15 256 0.0 3.2 0.00 0.00 0.00 83 1014.0
20260502190031 15 256 0.0 3.2 0.00 0.00 0.00 83 1014.2
20260502184529 15 269 4.8 9.7 0.00 0.00 0.00 82 1014.3
20260502183029 16 117 0.0 0.0 0.00 0.00 0.00 81 1014.0
20260502181527 16 117 0.0 1.6 0.00 0.00 0.00 80 1014.1
20260502163036 18 98 6.4 14.5 0.00 0.00 0.00 70 1014.2
20260502161526 20 63 4.8 12.9 0.00 0.00 0.00 66 1014.3
20260502151510 22 214 4.8 17.7 0.00 0.00 0.00 50 1014.9
20260502123110 21 258 6.4 19.3 0.00 0.00 0.00 58 1016.8
20260502121550 20 295 9.7 22.5 0.00 0.00 0.00 58 1017.2
20260502114544 21 221 9.7 30.6 0.00 0.00 0.00 55 1017.5
20260502113049 20 197 9.7 25.7 0.00 0.00 0.00 55 1017.5
20260502111545 21 247 11.3 22.5 0.00 0.00 0.00 56 1017.7
20260502110042 21 271 6.4 22.5 0.00 0.00 0.00 55 1017.8
20260502104536 20 216 6.4 22.5 0.00 0.00 0.00 56 1018.0
20260502103034 20 281 6.4 19.3 0.00 0.00 0.00 55 1018.2
20260502101531 20 244 3.2 22.5 0.00 0.00 0.00 55 1018.3
20260502091525 18 225 4.8 16.1 0.00 0.00 0.00 54 1018.8
20260502071504 15 263 1.6 9.7 0.00 0.00 0.00 61 1018.9
20260502070003 14 238 1.6 8.0 0.00 0.00 0.00 61 1019.0
20260502064501 14 259 3.2 11.3 0.00 0.00 0.00 59 1019.4
20260502063100 14 254 3.2 11.3 0.00 0.00 0.00 58 1019.3
20260502061558 14 251 4.8 11.3 0.00 0.00 0.00 56 1019.3
20260502060055 13 245 4.8 12.9 0.00 0.00 0.00 56 1019.5
20260502054553 13 253 4.8 19.3 0.00 0.00 0.00 54 1019.4
20260502053055 12 244 1.6 11.3 0.00 0.00 0.00 54 1019.3
20260502051559 11 199 0.0 4.8 0.00 0.00 0.00 53 1019.3
20260502050049 11 240 1.6 4.8 0.00 0.00 0.00 53 1019.2
20260502044548 11 242 0.0 3.2 0.00 0.00 0.00 51 1019.2
20260502043047 11 242 1.6 4.8 0.00 0.00 0.00 50 1019.3
20260502041545 11 205 0.0 4.8 0.00 0.00 0.00 50 1019.4
20260502040044 11 251 3.2 8.0 0.00 0.00 0.00 50 1019.6
20260502034543 11 241 0.0 1.6 0.00 0.00 0.00 51 1019.6
20260502033042 11 241 0.0 3.2 0.00 0.00 0.00 51 1019.7
20260502031541 11 241 1.6 3.2 0.00 0.00 0.00 51 1019.7
20260502030045 10 241 0.0 3.2 0.00 0.00 0.00 51 1019.8
20260502024537 11 241 0.0 3.2 0.00 0.00 0.00 51 1019.9